WIF4DP ENBR-ENHD

Flight info

Callsign WIF4DP
Flight time 0h 16m
Altitude 11000
Route BEGOD
Aircraft DH8B/M-SDFGR/S

Departure

Time 2026-04-29 10:29
Airport Bergen Airport, Flesland (ENBR)

Arrival

Time 2026-04-29 10:46
Airport Haugesund Airport, Karmøy (ENHD)
Time Latitude Longitude Altitude Speed Heading
2026-04-29 10:29 60.33854 5.16948 3312 ft 184 kts 260°
2026-04-29 10:29 60.33254 5.14677 4053 ft 187 kts 227°
2026-04-29 10:30 60.32083 5.13526 4790 ft 195 kts 187°
2026-04-29 10:30 60.30733 5.13927 5538 ft 198 kts 173°
2026-04-29 10:30 60.29375 5.13969 6268 ft 197 kts 188°
2026-04-29 10:30 60.27997 5.13715 7015 ft 201 kts 186°
2026-04-29 10:31 60.26580 5.13684 7728 ft 205 kts 181°
2026-04-29 10:31 60.25159 5.13762 8448 ft 208 kts 180°
2026-04-29 10:31 60.23690 5.13833 9199 ft 212 kts 180°
2026-04-29 10:31 60.22199 5.13877 9960 ft 215 kts 180°
2026-04-29 10:32 60.20685 5.13920 10699 ft 219 kts 180°
2026-04-29 10:32 60.19160 5.13969 11336 ft 227 kts 180°
2026-04-29 10:32 60.17487 5.14023 11533 ft 254 kts 180°
2026-04-29 10:32 60.15625 5.14074 11561 ft 277 kts 180°
2026-04-29 10:33 60.13633 5.14125 11590 ft 292 kts 180°
2026-04-29 10:33 60.11592 5.14186 11634 ft 300 kts 180°
2026-04-29 10:33 60.09473 5.14255 11672 ft 306 kts 180°
2026-04-29 10:33 60.07331 5.14326 11700 ft 297 kts 180°
2026-04-29 10:34 60.05355 5.14400 11657 ft 277 kts 179°
2026-04-29 10:34 60.03466 5.14476 11579 ft 272 kts 179°
2026-04-29 10:34 60.01587 5.14546 11518 ft 267 kts 179°
2026-04-29 10:34 59.99747 5.14605 11513 ft 262 kts 179°
2026-04-29 10:35 59.98537 5.14646 11515 ft 259 kts 179°
2026-04-29 10:35 59.96158 5.14732 11501 ft 256 kts 179°
2026-04-29 10:35 59.94977 5.14778 11497 ft 254 kts 179°
2026-04-29 10:35 59.93212 5.14845 11498 ft 252 kts 179°
2026-04-29 10:36 59.91461 5.14912 11493 ft 251 kts 179°
2026-04-29 10:36 59.89714 5.14980 11493 ft 251 kts 179°
2026-04-29 10:36 59.87976 5.15049 11496 ft 256 kts 179°
2026-04-29 10:36 59.86137 5.15118 11515 ft 270 kts 179°
2026-04-29 10:37 59.84224 5.15185 11528 ft 279 kts 179°
2026-04-29 10:37 59.82257 5.15251 11534 ft 285 kts 179°
2026-04-29 10:37 59.80256 5.15316 11535 ft 289 kts 179°
2026-04-29 10:37 59.78235 5.15380 11526 ft 292 kts 179°
2026-04-29 10:38 59.76222 5.15439 11529 ft 293 kts 179°
2026-04-29 10:38 59.74174 5.15497 11525 ft 295 kts 179°
2026-04-29 10:38 59.72120 5.15559 11525 ft 295 kts 179°
2026-04-29 10:38 59.70056 5.15619 11523 ft 296 kts 179°
2026-04-29 10:39 59.67997 5.15679 11518 ft 296 kts 179°
2026-04-29 10:39 59.65947 5.15740 11518 ft 296 kts 179°
2026-04-29 10:39 59.63882 5.15882 11512 ft 296 kts 171°
2026-04-29 10:39 59.61971 5.17252 11325 ft 289 kts 144°
2026-04-29 10:40 59.60507 5.19840 11092 ft 278 kts 133°
2026-04-29 10:40 59.59036 5.22228 10855 ft 277 kts 146°
2026-04-29 10:40 59.57303 5.23869 10613 ft 274 kts 155°
2026-04-29 10:40 59.55577 5.25447 10363 ft 271 kts 149°
2026-04-29 10:41 59.53988 5.27418 10095 ft 268 kts 143°
2026-04-29 10:41 59.52467 5.29470 9580 ft 265 kts 144°
2026-04-29 10:41 59.50924 5.31425 9057 ft 261 kts 147°
2026-04-29 10:41 59.49328 5.33124 8539 ft 258 kts 159°
2026-04-29 10:42 59.47591 5.33693 8032 ft 255 kts 178°
2026-04-29 10:42 59.45829 5.33647 7543 ft 251 kts 182°
2026-04-29 10:42 59.44134 5.33505 7051 ft 230 kts 183°
2026-04-29 10:42 59.42605 5.33374 6487 ft 212 kts 183°
2026-04-29 10:43 59.41163 5.33259 5891 ft 202 kts 183°
2026-04-29 10:43 59.39776 5.33151 5297 ft 197 kts 182°
2026-04-29 10:43 59.38420 5.33047 4696 ft 193 kts 183°
2026-04-29 10:43 59.37092 5.32929 4118 ft 188 kts 183°
2026-04-29 10:44 59.35809 5.32818 3551 ft 185 kts 183°
2026-04-29 10:44 59.34526 5.32670 3031 ft 182 kts 188°
2026-04-29 10:44 59.33325 5.32079 2580 ft 173 kts 202°
2026-04-29 10:44 59.32330 5.30939 2263 ft 158 kts 229°
2026-04-29 10:45 59.31809 5.29183 2068 ft 150 kts 255°
2026-04-29 10:45 59.31639 5.27148 1742 ft 152 kts 275°
2026-04-29 10:45 59.32009 5.25328 1466 ft 142 kts 310°
2026-04-29 10:45 59.32799 5.24131 793 ft 150 kts 325°
2026-04-29 10:46 59.33563 5.22765 219 ft 146 kts 314°
2026-04-29 10:46 59.34214 5.21441 87 ft 118 kts 316°
2026-04-29 10:46 59.34408 5.21117 80 ft 11 kts 353°
2026-04-29 10:46 59.34397 5.21112 82 ft 10 kts 134°
2026-04-29 10:47 59.34345 5.21228 85 ft 13 kts 122°
2026-04-29 10:47 59.34382 5.21373 82 ft 15 kts 45°
2026-04-29 10:47 59.34398 5.21521 83 ft 12 kts 124°
2026-04-29 10:47 59.34418 5.21602 85 ft 0 kts 44°